Location: La Chapelle
(48.3135°N, 1.3085°W)
Time: 07:33:50
(UTC+00:00)

Resurs 01 Rocket - Pass Details

Date: 03 March 2021
Orbit: 635 x 643 km, 98.0° (Epoch: 11 April)

Event Time Altitude Azimuth Distance (km) Brightness Sun altitude
Exits shadow 20:50:14 38° 332° (NNW) 979 2.8 -29.6°
Drops below altitude 10° 20:53:02 10° 343° (NNW) 2,035 4.7 -30.0°
Sets 20:55:15 0° 345° (NNW) 2,949 5.6 -30.3°
